Location: Écuvilly
(49.6505°N, 2.9206°E)
Time: 06:58:37
(UTC+00:00)

Cosmos 2251 Rocket - Pass Details

Date: 17 November 2025
Orbit: 760 x 788 km, 74.0° (Epoch: 12 December)

Event Time Altitude Azimuth Distance (km) Brightness Sun altitude
Rises 18:01:27 0° 199° (SSW) 3,232 7.1 -19.0°
Reaches altitude 10° 18:03:48 10° 198° (SSW) 2,313 6.3 -19.3°
Maximum altitude 18:09:04 83° 112° (ESE) 791 3.4 -20.2°
Enters shadow 18:12:38 22° 26° (NNE) 1,679 5.0 -20.8°
